Location: St Paul
(33.4390°N, 83.7350°W)
Time: 17:43:05
(UTC-05:00)

Cosmos 2369 - Pass Details

Date: 06 October 2017
Orbit: 838 x 858 km, 71.0° (Epoch: 12 December)

Event Time Altitude Azimuth Distance (km) Brightness Sun altitude
Rises 19:59:03 0° 337° (NNW) 3,404 7.2 -10.6°
Reaches altitude 10° 20:01:30 10° 336° (NNW) 2,469 6.5 -11.1°
Maximum altitude 20:07:10 76° 252° (WSW) 876 3.9 -12.3°
Drops below altitude 10° 20:12:49 10° 167° (SSE) 2,469 6.0 -13.4°
Sets 20:15:16 0° 166° (SSE) 3,403 6.7 -13.9°
